Regional Weather Roundup
Issued by NWS

Home | Current Version | Previous Version | Graphics & Text | Print | Product List | Glossary Off
Versions: 1 2 3 4 5 6 7 8 9 10 11 12 13 14 15 16 17 18 19 20 21 22 23 24 25 26 27 28 29 30 31 32 33 34 35 36 37 38 39 40 41 42 43 44 45 46 47 48 49 50

000
ASUS43 KMKX 020300
RWRWI

WISCONSIN REGIONAL WEATHER ROUNDUP
NATIONAL WEATHER SERVICE MILWAUKEE/SULLIVAN WI
1000 PM CDT SAT AUG 01 2015

NOTE: "FAIR" INDICATES FEW OR NO CLOUDS BELOW 12,000 FEET WITH NO
SIGNIFICANT WEATHER AND/OR OBSTRUCTIONS TO VISIBILITY.

WIZ001-002-006>008-014>016-023>028-020400-
NORTHWEST WISCONSIN

CITY           SKY/WX    TMP DP  RH WIND       PRES   REMARKS
SUPERIOR ARPT  CLEAR     69  60  73 SW7       29.73S
ASHLAND        PTCLDY    66  58  75 SW6       29.76S
HAYWARD        PTCLDY    67  57  70 S7        29.80F
SIREN          PTCLDY    71  62  72 S6        29.79F
CUMBERLAND     MOCLDY    64  61  88 CALM      29.82S
RICE LAKE      FAIR      66  62  86 CALM      29.83S
CHETEK         FAIR      68  64  86 CALM      29.82S
LADYSMITH      PTCLDY    67  59  77 CALM      29.84S
EAU CLAIRE     NOT AVBL
MENOMONIE      CLEAR     70  65  84 E3        29.81R
NEW RICHMOND   CLEAR     69  64  82 SE3       29.80S
OSCEOLA        CLEAR     71  65  82 CALM      29.81S
$$

WIZ003>005-009-010-017-018-020400-
NORTH CENTRAL WISCONSIN

CITY           SKY/WX    TMP DP  RH WIND       PRES   REMARKS
MANITOWISH WTR PTCLDY    62  56  82 S3        29.80F
ARBOR VITAE    PTCLDY    67  57  70 SW3       29.82F
WOODRUFF       PTCLDY    67  57  70 SW3       29.82F
RHINELANDER    PTCLDY    62  55  77 SW3       29.83F
EAGLE RIVER    PTCLDY    65  52  63 SW5       29.81F
LAND O LAKES   CLEAR     64  53  67 SW3       29.82S
PHILLIPS       CLEAR     66  57  73 SW3       29.81S
TOMAHAWK       CLEAR     62  56  79 CALM      29.83F
MEDFORD        CLEAR     61  58  90 S5        29.84F
MERRILL        NOT AVBL
$$

WIZ029-030-035-036-043>047-020400-
CENTRAL WISCONSIN

CITY           SKY/WX    TMP DP  RH WIND       PRES   REMARKS
WAUSAU         CLEAR     70  59  68 S3        29.82F
MOSINEE        CLEAR     82  57  42 CALM      29.85S HX  82
MARSHFIELD     CLEAR     67  59  75 CALM      29.85R
STEVENS POINT  CLEAR     65  55  71 CALM      29.85S
WAUPACA        CLEAR     67  58  72 CALM      29.84S
WAUTOMA        NOT AVBL
WISC RAPIDS    CLEAR     66  57  72 CALM      29.86R
CAMP DOUGLAS   NOT AVBL
$$

WIZ011>013-019>022-031-037>040-048>050-020400-
NORTHEAST WISCONSIN

CITY           SKY/WX    TMP DP  RH WIND       PRES   REMARKS
ANTIGO         CLEAR     61  55  80 SW5       29.84F
SHAWANO        CLEAR     69  56  63 CALM      29.83S
OCONTO         CLEAR     64  57  77 CALM      29.81S
STURGEON BAY   CLEAR     66  54  63 S7        29.84S
GREEN BAY      CLEAR     64  58  80 SW6       29.83S
MANITOWOC      NOT AVBL
APPLETON       PTCLDY    70  52  52 VRB3      29.85F
CLINTONVILLE   CLEAR     64  55  72 CALM      29.83S
OSHKOSH        CLEAR     66  57  72 SW3       29.85R
$$

WIZ032>034-041-042-053>061-020400-
SOUTHWEST WISCONSIN

CITY           SKY/WX    TMP DP  RH WIND       PRES   REMARKS
LA CROSSE      CLEAR     77  67  71 S7        29.82S
SPARTA         CLEAR     68  61  78 CALM      29.85S
VIROQUA        CLEAR     73  64  72 S7        29.88S
BOSCOBEL       CLEAR     70  67  90 CALM      29.87R
PRAIRIE DU CHI CLEAR     73  65  77 CALM      29.86S
PLATTEVILLE    CLEAR     72  69  90 SW7       29.90S
$$

WIZ056-057-062-063-064-067-068-020400-
SOUTH CENTRAL WISCONSIN

CITY           SKY/WX    TMP DP  RH WIND       PRES   REMARKS
REEDSBURG      CLEAR     72  63  74 S5        29.86S
BARABOO/DELLS  CLEAR     69  60  73 S3        29.87S
LONE ROCK      NOT AVBL
MINERAL POINT  CLEAR     73  63  68 SW7       29.90S
MADISON        PTCLDY    71  62  73 S3        29.87S
MIDDLETON      CLEAR     67  64  89 CALM      29.88S
WATERTOWN      CLEAR     69  65  88 CALM      29.87S
MONROE         CLEAR     72  66  83 SW7       29.90S
JANESVILLE     CLEAR     72  64  78 SW5       29.89R
$$

WIZ051-052-058>065-066-070>072-020400-
SOUTHEAST WISCONSIN

CITY           SKY/WX    TMP DP  RH WIND       PRES   REMARKS
MILWAUKEE      CLEAR     72  59  63 S5        29.87F
WAUKESHA       CLEAR     70  57  64 SW3       29.90R
MILWAUKEE/TIMM CLEAR     72  59  64 CALM      29.88S
RACINE         CLEAR     72  63  73 S5        29.89S
BURLINGTON     CLEAR     65  61  86 CALM      29.89S
KENOSHA        CLEAR     67  62  84 CALM      29.89S
FOND DU LAC    CLEAR     71  60  68 SW5       29.86S
SHEBOYGAN      CLEAR     66  59  78 CALM      29.86S
WEST BEND      CLEAR     68  59  73 CALM      29.87S
JUNEAU         CLEAR     68  62  79 SW3       29.88S
$$

LSZ147-162-020400-
LAKE SUPERIOR

STATION/POSITION TIME  TEMP    WIND        PRES    WAVE
                       AIR SEA DIR/SP/G            HT/PER
                 (UTC) (F)     (DEG/KT/KT) (MB)    (FT/S)
W MID LAKE BUOY  0150   62 55  210/ 12/ 12 1005.6F   1/ 3
DEVILS ISLAND    0200   71     220/ 12/ 14 1006.1F
PORT WING        0200   72     190/  6/  8 1007.1F
SAXON HARBOR     0200   68                 1007.1F
$$

LMZ867-665-643>646-020400-
LAKE MICHIGAN

STATION/POSITION TIME  TEMP    WIND        PRES    WAVE
                       AIR SEA DIR/SP/G            HT/PER
                 (UTC) (F)     (DEG/KT/KT) (MB)    (FT/S)
CHAMBERS ISLAND  0200   68     180/  2/  4 1009.1S
S GREEN BAY BUOY 0030   72 71  240/  6/  8 1011.3
N MID LAKE BUOY  0150   71 69  210/ 12/ 16 1008.5S   2/ 4
NORTHPORT PIER   0200   71      CALM  /  3 1009.1S
SISTER BAY       0215   72     170/  9/ 11   N/A
ALGOMA LAKESHORE 0212          230/  6/  7   N/A
KEWAUNEE LAKESHO 0200   73      CALM  /  2 1009.8R
SHEBOYGAN LAKESH 0200   73     180/  7/  8 1011.0R
PORT WASHINGTON  0200   67     200/  8/ 25 1011.9R
ATWATER BUOY     0200   71 65  180/  8/ 10 1013.0R
MILWAUKEE LAKESH 0200   70     190/  3/  4   N/A
KENOSHA   LAKESH 0200   72     170/  5/  6 1011.5R
$$

TC  - TEMPERATURE IN CELSIUS
VSB - VISIBILITY IN STATUTE MILES
WCI - WIND CHILL INDEX
HX  - HEAT INDEX




USA.gov is the U.S. government's official web portal to all federal, state and local government web resources and services.